Location: Tucson
(32.2217°N, 110.9265°W)
Time: 04:32:17
(UTC-07:00)

Oscar 11 - Pass Details

Date: 05 December 2021
Orbit: 611 x 625 km, 97.6° (Epoch: 19 January)

Event Time Altitude Azimuth Distance (km) Brightness Sun altitude
Rises 06:21:38 0° 358° (N) 2,902 10.3 -10.3°
Reaches altitude 10° 06:24:02 10° 348° (NNW) 1,990 9.3 -9.8°
Maximum altitude 06:27:47 29° 288° (WNW) 1,129 7.8 -9.1°
Drops below altitude 10° 06:31:30 10° 227° (SW) 1,972 9.4 -8.4°
Sets 06:33:53 0° 217° (SW) 2,871 10.3 -7.9°
